Zurück zum Katalog

STARLINK-6288

AktivKommunikationVLEO
NORAD 56398·PAYLOAD·🇺🇸 United States

Gestartet May 4, 2023 von Cape Canaveral Space Force Station

Loading…

Nächste Überflüge (nächste 24 Stunden)

TLE

AktuellSource: CelesTrak SupGP

Epoche: Sep 15, 2026, 02:54 UTC

1 56398C 23061AA  26258.12131944 -.00015633  00000+0 -56641-3 0  2583
2 56398  43.0016 197.1047 0001508 271.2436 217.5095 15.27574500    11

Verfolge STARLINK-6288 in Echtzeit mit AllMySat

Download on the App Store